Location: IoMAS Observatory
(54.1780°N, 4.6265°W)
Time: 11:07:50
(UTC+01:00)

ISS - Visible Passes

Search period start: 12 December 2018 00:00
Search period end: 22 December 2018 00:00
Orbit: 401 x 408 km, 51.6° (Epoch: 12 December)

Date Brightness Start Highest point End Pass type
(mag) Time Alt. Az. Time Alt. Az. Time Alt. Az.
12 Dec -0.7 18:56:29 10° WSW 18:57:55 12° SW 18:59:22 10° S visible
13 Dec -0.8 18:03:42 10° WSW 18:06:00 18° SSW 18:08:18 10° SSE visible
15 Dec -0.1 17:56:59 10° SW 17:57:44 11° SW 17:58:28 10° SSW visible
